Blythe, CA

11:53 AM PDT on May 28, 2017 (GMT -0700)
Blythe

Weather History for KBLH - August, 2013

Change the Weather History Date:

Saturday, August 17, 2013

  Actual Average Record
Temperature  
Mean Temperature 98 °F -  
Max Temperature 113 °F 105 °F 115 °F (1992)
Min Temperature 86 °F 80 °F 68 °F (1993)
Cooling Degree Days 34    
Growing Degree Days 48 (Base 50)    
Moisture  
Dew Point 57 °F    
Average Humidity 25    
Maximum Humidity 41    
Minimum Humidity 13    
Precipitation  
Precipitation 0.00 in - - ()
Sea Level Pressure  
Sea Level Pressure 29.74 in    
Wind  
Wind Speed 9 mph (SSE)    
Max Wind Speed 15 mph    
Max Gust Speed 23 mph    
Visibility 10 miles    
Events Thunderstorm    
Averages and records for this station are not official NWS values.
T = Trace of Precipitation, MM = Missing Value Source: NWS Daily Summary

Daily Weather History Graph

Daily Weather History Graph

Search for Another Location

Airport or City:

Trip Planner

Search our weather history database for the weather conditions in past years. The results will help you decide how hot, cold, wet, or windy it might be!

Date:

Astronomy

Aug. 17, 2013 Rise Set
Actual Time 6:02 AM PDT 7:22 PM PDT
Civil Twilight 5:36 AM PDT 7:48 PM PDT
Nautical Twilight 5:05 AM PDT 8:19 PM PDT
Astronomical Twilight 4:32 AM PDT 8:52 PM PDT
Moon 4:37 PM PDT (8/17) 2:15 AM PDT (8/17)
Length of Visible Light 14h 12m
Length of Day
13h 19m
Waxing Gibbous, 85% of the Moon is Illuminated
Aug 17
Waxing Gibbous
Aug 20
Full
Aug 28
Last Quarter
Sep 5
New
Sep 12
First Quarter

Hourly Weather History & Observations

Time (PDT) Temp. Heat Index Dew Point Humidity Pressure Visibility Wind Dir Wind Speed Gust Speed Precip Events Conditions
12:52 AM 93.9 °F 93.6 °F 60.1 °F 32% 29.76 in 10.0 mi SSW 8.1 mph - N/A   Clear
1:52 AM 93.9 °F 93.6 °F 60.1 °F 32% 29.77 in 10.0 mi South 15.0 mph - N/A   Clear
2:52 AM 93.0 °F 92.3 °F 59.0 °F 32% 29.75 in 10.0 mi SW 4.6 mph - N/A   Clear
3:52 AM 90.0 °F 89.7 °F 60.1 °F 37% 29.76 in 10.0 mi South 10.4 mph - N/A   Clear
4:52 AM 88.0 °F 87.6 °F 60.1 °F 39% 29.77 in 10.0 mi SSE 5.8 mph - N/A   Clear
5:52 AM 86.0 °F 85.7 °F 60.1 °F 41% 29.78 in 10.0 mi SE 5.8 mph - N/A   Clear
6:52 AM 89.1 °F 88.8 °F 60.1 °F 38% 29.80 in 10.0 mi South 4.6 mph - N/A   Clear
7:52 AM 93.0 °F 91.7 °F 57.0 °F 30% 29.82 in 10.0 mi WSW 3.5 mph - N/A   Clear
8:52 AM 97.0 °F 95.0 °F 55.0 °F 24% 29.82 in 10.0 mi Calm Calm - N/A   Clear
9:52 AM 100.0 °F - 52.0 °F 20% 29.83 in 10.0 mi South 9.2 mph - N/A   Clear
10:52 AM 104.0 °F - 50.0 °F 16% 29.81 in 10.0 mi South 9.2 mph - N/A   Clear
11:52 AM 106.0 °F - 50.0 °F 15% 29.79 in 10.0 mi South 4.6 mph - N/A   Clear
12:52 PM 108.0 °F - 50.0 °F 15% 29.75 in 10.0 mi SE 5.8 mph - N/A   Clear
1:52 PM 111.0 °F - 51.1 °F 14% 29.73 in 10.0 mi SSE 8.1 mph - N/A   Clear
2:52 PM 111.9 °F - 51.1 °F 13% 29.69 in 10.0 mi SSE 12.7 mph - N/A   Partly Cloudy
3:52 PM 111.9 °F - 50.0 °F 13% 29.66 in 10.0 mi SSE 12.7 mph - N/A   Partly Cloudy
4:52 PM 111.9 °F 110.5 °F 54.0 °F 15% 29.64 in 10.0 mi South 12.7 mph - N/A   Partly Cloudy
5:52 PM 111.0 °F 110.1 °F 55.0 °F 16% 29.63 in 10.0 mi South 13.8 mph - N/A   Partly Cloudy
6:52 PM 108.0 °F 108.8 °F 59.0 °F 20% 29.64 in 10.0 mi SSE 11.5 mph - N/A   Clear
7:52 PM 104.0 °F 106.0 °F 62.1 °F 25% 29.65 in 10.0 mi South 6.9 mph - N/A   Clear
8:52 PM 104.0 °F 102.9 °F 55.9 °F 20% 29.67 in 10.0 mi South 6.9 mph - N/A   Clear
9:52 PM 99.0 °F 98.1 °F 57.9 °F 25% 29.70 in 8.0 mi NE 13.8 mph 23.0 mph N/A   Clear
10:52 PM 98.1 °F 97.7 °F 59.0 °F 27% 29.72 in 9.0 mi East 12.7 mph - N/A   Clear
11:17 PM 95.0 °F 95.2 °F 60.8 °F 32% 29.76 in 9.0 mi East 11.5 mph - N/A   Mostly Cloudy
11:38 PM 93.2 °F 93.3 °F 60.8 °F 34% 29.76 in 10.0 mi East 9.2 mph - N/A   Scattered Clouds
11:52 PM 93.9 °F 93.6 °F 60.1 °F 32% 29.75 in - North - - N/A Thunderstorm Thunderstorm